Time,TemperatureF,DewpointF,PressureIn,WindDirection,WindDirectionDegrees,WindSpeedMPH,WindSpeedGustMPH,Humidity,HourlyPrecipIn,Conditions,Clouds,dailyrainin,SoftwareType,DateUTC
2013-08-25 00:02:00,61.1,52.8,29.83,NNW,334,0.0,2.0,74,0.00,,,0.00,WeatherCatV1.21B27,2013-08-25 07:02:00,
2013-08-25 00:07:00,61.3,52.6,29.83,NNW,334,0.0,0.0,73,0.00,,,0.00,WeatherCatV1.21B27,2013-08-25 07:07:00,
2013-08-25 00:12:00,61.9,52.4,29.83,NNW,335,0.0,1.0,71,0.00,,,0.00,WeatherCatV1.21B27,2013-08-25 07:12:00,
2013-08-25 00:17:00,62.3,52.4,29.82,NNW,335,0.0,0.0,70,0.00,,,0.00,WeatherCatV1.21B27,2013-08-25 07:17:00,
2013-08-25 00:22:00,62.4,52.5,29.82,NNW,335,0.0,0.0,70,0.00,,,0.00,WeatherCatV1.21B27,2013-08-25 07:22:00,
2013-08-25 00:27:00,62.5,52.6,29.82,NNW,335,0.0,0.0,70,0.00,,,0.00,WeatherCatV1.21B27,2013-08-25 07:27:00,
2013-08-25 00:32:00,62.6,52.7,29.83,NNW,335,0.0,0.0,70,0.00,,,0.00,WeatherCatV1.21B27,2013-08-25 07:32:00,
2013-08-25 00:37:00,62.6,52.7,29.83,NNW,335,0.0,0.0,70,0.00,,,0.00,WeatherCatV1.21B27,2013-08-25 07:37:00,
2013-08-25 00:42:00,62.6,53.4,29.83,NNW,335,0.0,0.0,72,0.00,,,0.00,WeatherCatV1.21B27,2013-08-25 07:42:00,
2013-08-25 00:47:00,62.5,53.7,29.83,NNW,335,0.0,0.0,73,0.00,,,0.00,WeatherCatV1.21B27,2013-08-25 07:47:00,
2013-08-25 00:52:00,62.4,53.6,29.83,NNW,335,0.0,0.0,73,0.00,,,0.00,WeatherCatV1.21B27,2013-08-25 07:52:00,
2013-08-25 00:57:00,62.3,53.5,29.83,NNW,335,0.0,0.0,73,0.00,,,0.00,WeatherCatV1.21B27,2013-08-25 07:57:00,
2013-08-25 01:02:00,62.2,53.4,29.83,NNW,335,0.0,0.0,73,0.00,,,0.00,WeatherCatV1.21B27,2013-08-25 08:02:00,
2013-08-25 01:07:00,62.1,53.7,29.83,NNW,335,0.0,0.0,74,0.00,,,0.00,WeatherCatV1.21B27,2013-08-25 08:07:00,
2013-08-25 01:12:00,61.9,53.5,29.83,NNW,335,0.0,0.0,74,0.00,,,0.00,WeatherCatV1.21B27,2013-08-25 08:12:00,
2013-08-25 01:17:00,61.8,53.8,29.83,NNW,335,0.0,0.0,75,0.00,,,0.00,WeatherCatV1.21B27,2013-08-25 08:17:00,
2013-08-25 01:22:00,61.6,53.6,29.83,NNW,335,0.0,0.0,75,0.00,,,0.00,WeatherCatV1.21B27,2013-08-25 08:22:00,
2013-08-25 01:27:00,61.4,54.1,29.83,NNW,335,0.0,0.0,77,0.00,,,0.00,WeatherCatV1.21B27,2013-08-25 08:27:00,
2013-08-25 01:32:00,61.3,54.4,29.83,NNW,335,0.0,0.0,78,0.00,,,0.00,WeatherCatV1.21B27,2013-08-25 08:32:00,
2013-08-25 01:37:00,61.2,54.3,29.83,NNW,335,0.0,0.0,78,0.00,,,0.00,WeatherCatV1.21B27,2013-08-25 08:37:00,
2013-08-25 01:42:00,61.1,54.5,29.83,NNW,335,0.0,0.0,79,0.00,,,0.00,WeatherCatV1.21B27,2013-08-25 08:42:00,
2013-08-25 01:47:00,60.9,54.7,29.83,NNW,335,0.0,0.0,80,0.00,,,0.00,WeatherCatV1.21B27,2013-08-25 08:47:00,
2013-08-25 01:52:00,60.7,54.8,29.83,NNW,335,0.0,0.0,81,0.00,,,0.00,WeatherCatV1.21B27,2013-08-25 08:52:00,
2013-08-25 01:57:00,60.4,54.5,29.83,NNW,335,0.0,0.0,81,0.00,,,0.00,WeatherCatV1.21B27,2013-08-25 08:57:00,
2013-08-25 02:02:00,60.0,54.5,29.83,NNW,335,0.0,0.0,82,0.00,,,0.00,WeatherCatV1.21B27,2013-08-25 09:02:00,
2013-08-25 02:07:00,59.5,53.7,29.83,NNW,335,2.0,2.0,81,0.00,,,0.00,WeatherCatV1.21B27,2013-08-25 09:07:00,
2013-08-25 02:12:00,59.1,53.6,29.83,NNW,335,1.0,2.0,82,0.00,,,0.00,WeatherCatV1.21B27,2013-08-25 09:12:00,
2013-08-25 02:17:00,59.0,53.8,29.83,NNW,335,0.0,0.0,83,0.00,,,0.00,WeatherCatV1.21B27,2013-08-25 09:17:00,
2013-08-25 02:22:00,59.0,53.8,29.83,NNW,335,0.0,1.0,83,0.00,,,0.00,WeatherCatV1.21B27,2013-08-25 09:22:00,
2013-08-25 02:27:00,59.0,53.8,29.83,NNW,335,0.0,0.0,83,0.00,,,0.00,WeatherCatV1.21B27,2013-08-25 09:27:00,
2013-08-25 02:32:00,59.1,53.9,29.83,NNW,335,0.0,0.0,83,0.00,,,0.00,WeatherCatV1.21B27,2013-08-25 09:32:00,
2013-08-25 02:37:00,59.4,54.2,29.83,NNW,335,0.0,1.0,83,0.00,,,0.00,WeatherCatV1.21B27,2013-08-25 09:37:00,
2013-08-25 02:42:00,59.8,54.6,29.83,NNW,335,0.0,0.0,83,0.00,,,0.00,WeatherCatV1.21B27,2013-08-25 09:42:00,
2013-08-25 02:47:00,60.0,54.5,29.83,NNW,335,0.0,0.0,82,0.00,,,0.00,WeatherCatV1.21B27,2013-08-25 09:47:00,
2013-08-25 02:52:00,60.0,54.2,29.83,NNW,335,0.0,1.0,81,0.00,,,0.00,WeatherCatV1.21B27,2013-08-25 09:52:00,
2013-08-25 02:57:00,60.0,54.2,29.83,NNW,335,0.0,0.0,81,0.00,,,0.00,WeatherCatV1.21B27,2013-08-25 09:57:00,
2013-08-25 03:02:00,60.0,54.2,29.83,NNW,335,0.0,1.0,81,0.00,,,0.00,WeatherCatV1.21B27,2013-08-25 10:02:00,
2013-08-25 03:07:00,59.9,54.0,29.83,NNW,335,0.0,0.0,81,0.00,,,0.00,WeatherCatV1.21B27,2013-08-25 10:07:00,
2013-08-25 03:12:00,59.9,54.0,29.83,NNW,335,0.0,0.0,81,0.00,,,0.00,WeatherCatV1.21B27,2013-08-25 10:12:00,
2013-08-25 03:17:00,60.0,54.2,29.83,NNW,335,0.0,1.0,81,0.00,,,0.00,WeatherCatV1.21B27,2013-08-25 10:17:00,
2013-08-25 03:22:00,60.0,54.2,29.83,NNW,335,0.0,0.0,81,0.00,,,0.00,WeatherCatV1.21B27,2013-08-25 10:22:00,
2013-08-25 03:27:00,60.0,54.2,29.83,NNW,335,0.0,0.0,81,0.00,,,0.00,WeatherCatV1.21B27,2013-08-25 10:27:00,
2013-08-25 03:32:00,60.0,54.2,29.83,NNW,335,0.0,0.0,81,0.00,,,0.00,WeatherCatV1.21B27,2013-08-25 10:32:00,
2013-08-25 03:37:00,60.0,54.2,29.83,NNW,335,0.0,0.0,81,0.00,,,0.00,WeatherCatV1.21B27,2013-08-25 10:37:00,
2013-08-25 03:42:00,60.0,54.5,29.83,NNW,335,0.0,0.0,82,0.00,,,0.00,WeatherCatV1.21B27,2013-08-25 10:42:00,
2013-08-25 03:47:00,60.1,54.2,29.83,NNW,335,0.0,0.0,81,0.00,,,0.00,WeatherCatV1.21B27,2013-08-25 10:47:00,
2013-08-25 03:52:00,60.2,54.3,29.83,NNW,335,0.0,0.0,81,0.00,,,0.00,WeatherCatV1.21B27,2013-08-25 10:52:00,
2013-08-25 03:57:00,60.3,54.4,29.83,NNW,335,0.0,0.0,81,0.00,,,0.00,WeatherCatV1.21B27,2013-08-25 10:57:00,
2013-08-25 04:02:00,60.4,54.5,29.83,NNW,335,0.0,0.0,81,0.00,,,0.00,WeatherCatV1.21B27,2013-08-25 11:02:00,
2013-08-25 04:07:00,60.5,54.6,29.83,NNW,335,0.0,0.0,81,0.00,,,0.00,WeatherCatV1.21B27,2013-08-25 11:07:00,
2013-08-25 04:12:00,60.6,54.7,29.83,NNW,335,0.0,0.0,81,0.00,,,0.00,WeatherCatV1.21B27,2013-08-25 11:12:00,
2013-08-25 04:17:00,60.6,54.7,29.83,NNW,335,0.0,0.0,81,0.00,,,0.00,WeatherCatV1.21B27,2013-08-25 11:17:00,
2013-08-25 04:22:00,60.7,54.5,29.83,NNW,335,0.0,0.0,80,0.00,,,0.00,WeatherCatV1.21B27,2013-08-25 11:22:00,
2013-08-25 04:27:00,60.8,54.6,29.83,NNW,335,0.0,0.0,80,0.00,,,0.00,WeatherCatV1.21B27,2013-08-25 11:27:00,
2013-08-25 04:32:00,60.9,54.7,29.83,NNW,335,0.0,0.0,80,0.00,,,0.00,WeatherCatV1.21B27,2013-08-25 11:32:00,
2013-08-25 04:37:00,60.9,54.7,29.83,NNW,335,0.0,0.0,80,0.00,,,0.00,WeatherCatV1.21B27,2013-08-25 11:37:00,
2013-08-25 04:42:00,61.0,54.8,29.83,NNW,335,0.0,0.0,80,0.00,,,0.00,WeatherCatV1.21B27,2013-08-25 11:42:00,
2013-08-25 04:47:00,61.0,54.8,29.83,NNW,335,0.0,0.0,80,0.00,,,0.00,WeatherCatV1.21B27,2013-08-25 11:47:00,
2013-08-25 04:52:00,61.0,54.8,29.83,NNW,335,0.0,0.0,80,0.00,,,0.00,WeatherCatV1.21B27,2013-08-25 11:52:00,
2013-08-25 04:57:00,61.0,54.8,29.83,NNW,335,0.0,0.0,80,0.00,,,0.00,WeatherCatV1.21B27,2013-08-25 11:57:00,
2013-08-25 05:02:00,60.9,54.7,29.83,NNW,335,0.0,1.0,80,0.00,,,0.00,WeatherCatV1.21B27,2013-08-25 12:02:00,
2013-08-25 05:07:00,60.8,54.6,29.83,NNW,335,1.0,1.0,80,0.00,,,0.00,WeatherCatV1.21B27,2013-08-25 12:07:00,
2013-08-25 05:12:00,60.8,54.6,29.83,NNW,335,0.0,0.0,80,0.00,,,0.00,WeatherCatV1.21B27,2013-08-25 12:12:00,
2013-08-25 05:17:00,60.8,54.6,29.83,NNW,335,0.0,0.0,80,0.00,,,0.00,WeatherCatV1.21B27,2013-08-25 12:17:00,
2013-08-25 05:22:00,60.8,54.6,29.83,NNW,335,0.0,0.0,80,0.00,,,0.00,WeatherCatV1.21B27,2013-08-25 12:22:00,
2013-08-25 05:27:00,60.8,54.6,29.83,NNW,335,0.0,0.0,80,0.00,,,0.00,WeatherCatV1.21B27,2013-08-25 12:27:00,
2013-08-25 05:32:00,60.8,54.6,29.83,NNW,335,0.0,0.0,80,0.00,,,0.00,WeatherCatV1.21B27,2013-08-25 12:32:00,
2013-08-25 05:37:00,60.7,54.5,29.83,NNW,335,0.0,0.0,80,0.00,,,0.00,WeatherCatV1.21B27,2013-08-25 12:37:00,
2013-08-25 05:42:00,60.7,54.5,29.83,NNW,335,0.0,0.0,80,0.00,,,0.00,WeatherCatV1.21B27,2013-08-25 12:42:00,
2013-08-25 05:47:00,60.7,54.5,29.83,NNW,335,0.0,0.0,80,0.00,,,0.00,WeatherCatV1.21B27,2013-08-25 12:47:00,
2013-08-25 05:52:00,60.7,54.5,29.83,NNW,335,0.0,0.0,80,0.00,,,0.00,WeatherCatV1.21B27,2013-08-25 12:52:00,
2013-08-25 05:57:00,60.6,54.4,29.83,NNW,335,0.0,0.0,80,0.00,,,0.00,WeatherCatV1.21B27,2013-08-25 12:57:00,
2013-08-25 06:02:00,60.5,54.3,29.83,NNW,335,0.0,0.0,80,0.00,,,0.00,WeatherCatV1.21B27,2013-08-25 13:02:00,
2013-08-25 06:07:00,60.5,54.3,29.83,NNW,335,0.0,0.0,80,0.00,,,0.00,WeatherCatV1.21B27,2013-08-25 13:07:00,
2013-08-25 06:12:00,60.5,54.3,29.83,NNW,335,0.0,0.0,80,0.00,,,0.00,WeatherCatV1.21B27,2013-08-25 13:12:00,
2013-08-25 06:17:00,60.5,54.6,29.83,NNW,335,0.0,0.0,81,0.00,,,0.00,WeatherCatV1.21B27,2013-08-25 13:17:00,
2013-08-25 06:22:00,60.5,54.6,29.83,NNW,335,0.0,0.0,81,0.00,,,0.00,WeatherCatV1.21B27,2013-08-25 13:22:00,
2013-08-25 06:27:00,60.5,54.6,29.83,NNW,335,0.0,0.0,81,0.00,,,0.00,WeatherCatV1.21B27,2013-08-25 13:27:00,
2013-08-25 06:32:00,60.4,54.5,29.84,NNW,335,0.0,0.0,81,0.00,,,0.00,WeatherCatV1.21B27,2013-08-25 13:32:00,
2013-08-25 06:37:00,60.3,54.4,29.84,NNW,335,0.0,0.0,81,0.00,,,0.00,WeatherCatV1.21B27,2013-08-25 13:37:00,
2013-08-25 06:42:00,60.3,54.4,29.84,NNW,335,0.0,0.0,81,0.00,,,0.00,WeatherCatV1.21B27,2013-08-25 13:42:00,
2013-08-25 06:47:00,60.2,54.3,29.85,NNW,335,0.0,0.0,81,0.00,,,0.00,WeatherCatV1.21B27,2013-08-25 13:47:00,
2013-08-25 06:52:00,60.2,54.3,29.85,NNW,335,0.0,0.0,81,0.00,,,0.00,WeatherCatV1.21B27,2013-08-25 13:52:00,
2013-08-25 06:57:00,60.2,54.3,29.85,NNW,335,0.0,0.0,81,0.00,,,0.00,WeatherCatV1.21B27,2013-08-25 13:57:00,
2013-08-25 07:02:00,60.2,54.7,29.85,NNW,335,0.0,0.0,82,0.00,,,0.00,WeatherCatV1.21B27,2013-08-25 14:02:00,
2013-08-25 07:07:00,60.2,55.0,29.85,NNW,336,0.0,0.0,83,0.00,,,0.00,WeatherCatV1.21B27,2013-08-25 14:07:00,
2013-08-25 07:12:00,60.2,55.0,29.85,NNW,336,0.0,0.0,83,0.00,,,0.00,WeatherCatV1.21B27,2013-08-25 14:12:00,
2013-08-25 07:17:00,60.2,55.3,29.85,NNW,336,0.0,0.0,84,0.00,,,0.00,WeatherCatV1.21B27,2013-08-25 14:17:00,
2013-08-25 07:22:00,60.3,55.4,29.85,NNW,336,0.0,0.0,84,0.00,,,0.00,WeatherCatV1.21B27,2013-08-25 14:22:00,
2013-08-25 07:27:00,60.5,55.6,29.85,NNW,336,0.0,0.0,84,0.00,,,0.00,WeatherCatV1.21B27,2013-08-25 14:27:00,
2013-08-25 07:32:00,60.7,55.8,29.85,NNW,336,0.0,0.0,84,0.00,,,0.00,WeatherCatV1.21B27,2013-08-25 14:32:00,
2013-08-25 07:37:00,60.8,55.6,29.85,NNW,336,0.0,0.0,83,0.00,,,0.00,WeatherCatV1.21B27,2013-08-25 14:37:00,
2013-08-25 07:42:00,61.0,55.5,29.85,NNW,336,0.0,0.0,82,0.00,,,0.00,WeatherCatV1.21B27,2013-08-25 14:42:00,
2013-08-25 07:47:00,61.1,55.9,29.85,NNW,336,0.0,0.0,83,0.00,,,0.00,WeatherCatV1.21B27,2013-08-25 14:47:00,
2013-08-25 07:52:00,61.3,55.8,29.85,NNW,336,0.0,0.0,82,0.00,,,0.00,WeatherCatV1.21B27,2013-08-25 14:52:00,
2013-08-25 07:57:00,61.5,55.6,29.85,NNW,336,0.0,0.0,81,0.00,,,0.00,WeatherCatV1.21B27,2013-08-25 14:57:00,
2013-08-25 08:02:00,61.6,55.7,29.85,NNW,336,0.0,0.0,81,0.00,,,0.00,WeatherCatV1.21B27,2013-08-25 15:02:00,
2013-08-25 08:07:00,61.7,55.8,29.85,NNW,336,0.0,0.0,81,0.00,,,0.00,WeatherCatV1.21B27,2013-08-25 15:07:00,
2013-08-25 08:12:00,61.8,55.9,29.85,NNW,336,0.0,0.0,81,0.00,,,0.00,WeatherCatV1.21B27,2013-08-25 15:12:00,
2013-08-25 08:17:00,61.9,55.7,29.85,NNW,336,0.0,0.0,80,0.00,,,0.00,WeatherCatV1.21B27,2013-08-25 15:17:00,
2013-08-25 08:22:00,62.1,55.8,29.85,NNW,338,0.0,1.0,80,0.00,,,0.00,WeatherCatV1.21B27,2013-08-25 15:22:00,
2013-08-25 08:27:00,62.3,56.4,29.85,NNW,338,0.0,0.0,81,0.00,,,0.00,WeatherCatV1.21B27,2013-08-25 15:27:00,
2013-08-25 08:32:00,62.6,56.3,29.86,ENE,59,0.0,0.0,80,0.00,,,0.00,WeatherCatV1.21B27,2013-08-25 15:32:00,
2013-08-25 08:37:00,62.9,56.6,29.86,ENE,59,0.0,1.0,80,0.00,,,0.00,WeatherCatV1.21B27,2013-08-25 15:37:00,
2013-08-25 08:42:00,63.0,56.7,29.86,ENE,59,0.0,0.0,80,0.00,,,0.00,WeatherCatV1.21B27,2013-08-25 15:42:00,
2013-08-25 08:47:00,63.1,56.8,29.86,SSE,149,0.0,1.0,80,0.00,,,0.00,WeatherCatV1.21B27,2013-08-25 15:47:00,
2013-08-25 08:52:00,63.3,56.7,29.86,SSE,156,0.0,0.0,79,0.00,,,0.00,WeatherCatV1.21B27,2013-08-25 15:52:00,
2013-08-25 08:57:00,63.8,56.8,29.86,SSE,160,1.0,2.0,78,0.00,,,0.00,WeatherCatV1.21B27,2013-08-25 15:57:00,
2013-08-25 09:02:00,64.0,57.0,29.86,SSE,163,0.0,1.0,78,0.00,,,0.00,WeatherCatV1.21B27,2013-08-25 16:02:00,
2013-08-25 09:07:00,64.1,57.1,29.86,South,169,1.0,1.0,78,0.00,,,0.00,WeatherCatV1.21B27,2013-08-25 16:07:00,
2013-08-25 09:12:00,64.4,57.4,29.86,SSE,162,0.0,2.0,78,0.00,,,0.00,WeatherCatV1.21B27,2013-08-25 16:12:00,
2013-08-25 09:17:00,64.6,57.2,29.86,SSE,156,1.0,3.0,77,0.00,,,0.00,WeatherCatV1.21B27,2013-08-25 16:17:00,
2013-08-25 09:22:00,64.7,57.7,29.86,SSE,152,0.0,1.0,78,0.00,,,0.00,WeatherCatV1.21B27,2013-08-25 16:22:00,
2013-08-25 09:27:00,65.0,57.6,29.86,SSE,152,1.0,1.0,77,0.00,,,0.00,WeatherCatV1.21B27,2013-08-25 16:27:00,
2013-08-25 09:32:00,65.2,57.4,29.87,SE,145,0.0,1.0,76,0.00,,,0.00,WeatherCatV1.21B27,2013-08-25 16:32:00,
2013-08-25 09:37:00,65.5,58.1,29.87,SE,145,1.0,1.0,77,0.00,,,0.00,WeatherCatV1.21B27,2013-08-25 16:37:00,
2013-08-25 09:42:00,65.8,58.0,29.87,SSE,148,0.0,1.0,76,0.00,,,0.00,WeatherCatV1.21B27,2013-08-25 16:42:00,
2013-08-25 09:47:00,66.3,58.5,29.86,SSE,155,0.0,1.0,76,0.00,,,0.00,WeatherCatV1.21B27,2013-08-25 16:47:00,
2013-08-25 09:52:00,66.8,58.6,29.86,SE,133,0.0,0.0,75,0.00,,,0.00,WeatherCatV1.21B27,2013-08-25 16:52:00,
2013-08-25 09:57:00,67.4,58.8,29.86,SE,142,0.0,2.0,74,0.00,,,0.00,WeatherCatV1.21B27,2013-08-25 16:57:00,
2013-08-25 10:02:00,67.9,58.9,29.87,SE,143,0.0,2.0,73,0.00,,,0.00,WeatherCatV1.21B27,2013-08-25 17:02:00,
2013-08-25 10:07:00,68.3,59.3,29.87,SE,143,0.0,0.0,73,0.00,,,0.00,WeatherCatV1.21B27,2013-08-25 17:07:00,
2013-08-25 10:12:00,68.8,59.4,29.87,SE,143,0.0,2.0,72,0.00,,,0.00,WeatherCatV1.21B27,2013-08-25 17:12:00,
2013-08-25 10:17:00,69.3,59.5,29.87,SE,142,0.0,0.0,71,0.00,,,0.00,WeatherCatV1.21B27,2013-08-25 17:17:00,
2013-08-25 10:22:00,69.8,58.8,29.87,ESE,110,1.0,1.0,68,0.00,,,0.00,WeatherCatV1.21B27,2013-08-25 17:22:00,
2013-08-25 10:27:00,70.1,59.4,29.87,SE,131,0.0,2.0,69,0.00,,,0.00,WeatherCatV1.21B27,2013-08-25 17:27:00,
2013-08-25 10:32:00,70.4,58.9,29.88,North,1,0.0,2.0,67,0.00,,,0.00,WeatherCatV1.21B27,2013-08-25 17:32:00,
2013-08-25 10:37:00,70.6,59.1,29.88,SSE,167,0.0,1.0,67,0.00,,,0.00,WeatherCatV1.21B27,2013-08-25 17:37:00,
2013-08-25 10:42:00,71.1,59.6,29.88,SSE,148,0.0,3.0,67,0.00,,,0.00,WeatherCatV1.21B27,2013-08-25 17:42:00,
2013-08-25 10:47:00,71.3,58.9,29.88,NNE,19,0.0,1.0,65,0.00,,,0.00,WeatherCatV1.21B27,2013-08-25 17:47:00,
2013-08-25 10:52:00,71.4,59.0,29.88,NW,310,0.0,2.0,65,0.00,,,0.00,WeatherCatV1.21B27,2013-08-25 17:52:00,
2013-08-25 10:57:00,71.6,59.2,29.88,SE,145,2.0,3.0,65,0.00,,,0.00,WeatherCatV1.21B27,2013-08-25 17:57:00,
2013-08-25 11:02:00,72.1,59.7,29.88,SE,144,1.0,1.0,65,0.00,,,0.00,WeatherCatV1.21B27,2013-08-25 18:02:00,
2013-08-25 11:07:00,73.0,60.1,29.88,SE,144,0.0,1.0,64,0.00,,,0.00,WeatherCatV1.21B27,2013-08-25 18:07:00,
2013-08-25 11:12:00,73.4,59.6,29.88,SSE,150,0.0,0.0,62,0.00,,,0.00,WeatherCatV1.21B27,2013-08-25 18:12:00,
2013-08-25 11:17:00,73.9,59.1,29.88,SE,146,1.0,2.0,60,0.00,,,0.00,WeatherCatV1.21B27,2013-08-25 18:17:00,
2013-08-25 11:22:00,74.6,58.8,29.88,SE,146,1.0,3.0,58,0.00,,,0.00,WeatherCatV1.21B27,2013-08-25 18:22:00,
2013-08-25 11:27:00,74.8,59.5,29.88,SSE,153,1.0,1.0,59,0.00,,,0.00,WeatherCatV1.21B27,2013-08-25 18:27:00,
2013-08-25 11:32:00,75.2,58.9,29.88,SE,141,1.0,3.0,57,0.00,,,0.00,WeatherCatV1.21B27,2013-08-25 18:32:00,
2013-08-25 11:37:00,75.7,59.4,29.88,South,169,3.0,3.0,57,0.00,,,0.00,WeatherCatV1.21B27,2013-08-25 18:37:00,
2013-08-25 11:42:00,76.2,59.3,29.88,East,93,0.0,1.0,56,0.00,,,0.00,WeatherCatV1.21B27,2013-08-25 18:42:00,
2013-08-25 11:47:00,76.6,59.2,29.88,ESE,102,1.0,3.0,55,0.00,,,0.00,WeatherCatV1.21B27,2013-08-25 18:47:00,
2013-08-25 11:52:00,77.0,59.6,29.88,SE,131,0.0,2.0,55,0.00,,,0.00,WeatherCatV1.21B27,2013-08-25 18:52:00,
2013-08-25 11:57:00,77.6,59.6,29.88,SW,219,1.0,1.0,54,0.00,,,0.00,WeatherCatV1.21B27,2013-08-25 18:57:00,
2013-08-25 12:02:00,78.7,60.1,29.88,SSE,163,0.0,1.0,53,0.00,,,0.00,WeatherCatV1.21B27,2013-08-25 19:02:00,
2013-08-25 12:07:00,79.3,60.1,29.88,SSE,148,1.0,1.0,52,0.00,,,0.00,WeatherCatV1.21B27,2013-08-25 19:07:00,
2013-08-25 12:12:00,79.7,60.5,29.88,ENE,59,1.0,2.0,52,0.00,,,0.00,WeatherCatV1.21B27,2013-08-25 19:12:00,
2013-08-25 12:17:00,80.0,60.2,29.88,SE,142,1.0,2.0,51,0.00,,,0.00,WeatherCatV1.21B27,2013-08-25 19:17:00,
2013-08-25 12:22:00,80.4,60.0,29.88,SE,139,1.0,2.0,50,0.00,,,0.00,WeatherCatV1.21B27,2013-08-25 19:22:00,
2013-08-25 12:27:00,80.2,60.4,29.88,SE,127,1.0,1.0,51,0.00,,,0.00,WeatherCatV1.21B27,2013-08-25 19:27:00,
2013-08-25 12:32:00,80.4,59.5,29.88,SSE,155,1.0,1.0,49,0.00,,,0.00,WeatherCatV1.21B27,2013-08-25 19:32:00,
2013-08-25 12:37:00,80.5,59.0,29.88,North,5,0.0,2.0,48,0.00,,,0.00,WeatherCatV1.21B27,2013-08-25 19:37:00,
2013-08-25 12:42:00,80.6,60.2,29.88,ESE,115,0.0,1.0,50,0.00,,,0.00,WeatherCatV1.21B27,2013-08-25 19:42:00,
2013-08-25 12:47:00,80.8,59.2,29.88,SE,138,0.0,2.0,48,0.00,,,0.00,WeatherCatV1.21B27,2013-08-25 19:47:00,
2013-08-25 12:52:00,80.8,58.7,29.88,SSE,150,0.0,1.0,47,0.00,,,0.00,WeatherCatV1.21B27,2013-08-25 19:52:00,
2013-08-25 12:57:00,80.8,59.2,29.88,SSE,156,0.0,1.0,48,0.00,,,0.00,WeatherCatV1.21B27,2013-08-25 19:57:00,
2013-08-25 13:02:00,81.4,58.6,29.88,SSW,212,0.0,1.0,46,0.00,,,0.00,WeatherCatV1.21B27,2013-08-25 20:02:00,
2013-08-25 13:07:00,81.6,58.8,29.88,SSE,159,1.0,2.0,46,0.00,,,0.00,WeatherCatV1.21B27,2013-08-25 20:07:00,
2013-08-25 13:12:00,81.2,58.4,29.88,South,171,1.0,1.0,46,0.00,,,0.00,WeatherCatV1.21B27,2013-08-25 20:12:00,
2013-08-25 13:17:00,81.4,58.6,29.88,SSE,160,0.0,1.0,46,0.00,,,0.00,WeatherCatV1.21B27,2013-08-25 20:17:00,
2013-08-25 13:22:00,81.6,58.2,29.88,SSE,158,1.0,2.0,45,0.00,,,0.00,WeatherCatV1.21B27,2013-08-25 20:22:00,
2013-08-25 13:27:00,81.3,57.3,29.88,West,271,2.0,3.0,44,0.00,,,0.00,WeatherCatV1.21B27,2013-08-25 20:27:00,
2013-08-25 13:32:00,80.8,56.2,29.88,SE,138,0.0,0.0,43,0.00,,,0.00,WeatherCatV1.21B27,2013-08-25 20:32:00,
2013-08-25 13:37:00,80.7,56.7,29.88,ESE,117,0.0,2.0,44,0.00,,,0.00,WeatherCatV1.21B27,2013-08-25 20:37:00,
2013-08-25 13:42:00,80.5,56.5,29.88,ESE,104,0.0,1.0,44,0.00,,,0.00,WeatherCatV1.21B27,2013-08-25 20:42:00,
2013-08-25 13:47:00,80.1,56.8,29.88,ESE,103,0.0,1.0,45,0.00,,,0.00,WeatherCatV1.21B27,2013-08-25 20:47:00,
2013-08-25 13:52:00,80.6,56.6,29.88,NNW,327,1.0,2.0,44,0.00,,,0.00,WeatherCatV1.21B27,2013-08-25 20:52:00,
2013-08-25 13:57:00,80.4,56.5,29.88,SSE,151,1.0,2.0,44,0.00,,,0.00,WeatherCatV1.21B27,2013-08-25 20:57:00,
2013-08-25 14:02:00,79.9,56.0,29.88,SE,135,1.0,2.0,44,0.00,,,0.00,WeatherCatV1.21B27,2013-08-25 21:02:00,
2013-08-25 14:07:00,79.6,56.4,29.88,SE,144,0.0,2.0,45,0.00,,,0.00,WeatherCatV1.21B27,2013-08-25 21:07:00,
2013-08-25 14:12:00,79.5,55.7,29.88,SSE,149,1.0,2.0,44,0.00,,,0.00,WeatherCatV1.21B27,2013-08-25 21:12:00,
2013-08-25 14:17:00,79.5,57.5,29.88,SE,145,1.0,2.0,47,0.00,,,0.00,WeatherCatV1.21B27,2013-08-25 21:17:00,
2013-08-25 14:22:00,79.6,55.7,29.88,SSE,148,0.0,2.0,44,0.00,,,0.00,WeatherCatV1.21B27,2013-08-25 21:22:00,
2013-08-25 14:27:00,79.0,56.4,29.88,East,86,0.0,1.0,46,0.00,,,0.00,WeatherCatV1.21B27,2013-08-25 21:27:00,
2013-08-25 14:32:00,79.0,56.4,29.88,SE,141,1.0,4.0,46,0.00,,,0.00,WeatherCatV1.21B27,2013-08-25 21:32:00,
2013-08-25 14:37:00,78.4,56.5,29.88,SE,138,0.0,1.0,47,0.00,,,0.00,WeatherCatV1.21B27,2013-08-25 21:37:00,
2013-08-25 14:42:00,78.4,57.1,29.88,ESE,106,0.0,2.0,48,0.00,,,0.00,WeatherCatV1.21B27,2013-08-25 21:42:00,
2013-08-25 14:47:00,78.2,56.3,29.88,SE,126,2.0,2.0,47,0.00,,,0.00,WeatherCatV1.21B27,2013-08-25 21:47:00,
2013-08-25 14:52:00,78.0,56.1,29.88,SSE,149,1.0,2.0,47,0.00,,,0.00,WeatherCatV1.21B27,2013-08-25 21:52:00,
2013-08-25 14:57:00,77.8,56.5,29.88,SSE,157,0.0,2.0,48,0.00,,,0.00,WeatherCatV1.21B27,2013-08-25 21:57:00,
2013-08-25 15:02:00,77.4,56.2,29.88,SW,227,0.0,2.0,48,0.00,,,0.00,WeatherCatV1.21B27,2013-08-25 22:02:00,
2013-08-25 15:07:00,77.2,57.1,29.88,SSE,152,1.0,3.0,50,0.00,,,0.00,WeatherCatV1.21B27,2013-08-25 22:07:00,
2013-08-25 15:12:00,77.1,56.5,29.88,ESE,109,0.0,1.0,49,0.00,,,0.00,WeatherCatV1.21B27,2013-08-25 22:12:00,
2013-08-25 15:17:00,76.8,56.2,29.88,SE,138,0.0,0.0,49,0.00,,,0.00,WeatherCatV1.21B27,2013-08-25 22:17:00,
2013-08-25 15:22:00,76.6,56.0,29.88,NNW,337,0.0,3.0,49,0.00,,,0.00,WeatherCatV1.21B27,2013-08-25 22:22:00,
2013-08-25 15:27:00,76.5,55.9,29.88,SE,146,0.0,1.0,49,0.00,,,0.00,WeatherCatV1.21B27,2013-08-25 22:27:00,
2013-08-25 15:32:00,76.3,55.7,29.88,SE,144,0.0,1.0,49,0.00,,,0.00,WeatherCatV1.21B27,2013-08-25 22:32:00,
2013-08-25 15:37:00,76.1,56.1,29.88,SE,129,1.0,1.0,50,0.00,,,0.00,WeatherCatV1.21B27,2013-08-25 22:37:00,
2013-08-25 15:42:00,75.8,55.8,29.88,East,85,0.0,3.0,50,0.00,,,0.00,WeatherCatV1.21B27,2013-08-25 22:42:00,
2013-08-25 15:47:00,75.3,55.9,29.88,SE,141,0.0,2.0,51,0.00,,,0.00,WeatherCatV1.21B27,2013-08-25 22:47:00,
2013-08-25 15:52:00,75.1,55.7,29.88,North,2,1.0,1.0,51,0.00,,,0.00,WeatherCatV1.21B27,2013-08-25 22:52:00,
2013-08-25 15:57:00,75.1,56.2,29.88,SE,134,1.0,1.0,52,0.00,,,0.00,WeatherCatV1.21B27,2013-08-25 22:57:00,
2013-08-25 15:58:00,75.1,56.2,29.88,SE,138,0.0,1.0,52,0.00,,,0.00,WeatherCatV1.21B27,2013-08-25 22:58:00,
2013-08-25 16:03:00,74.9,56.6,29.87,SSW,213,0.0,2.0,53,0.00,,,0.00,WeatherCatV1.21B27,2013-08-25 23:03:00,
2013-08-25 16:08:00,74.8,56.5,29.87,SE,135,1.0,2.0,53,0.00,,,0.00,WeatherCatV1.21B27,2013-08-25 23:08:00,
2013-08-25 16:13:00,74.5,55.7,29.87,East,85,0.0,2.0,52,0.00,,,0.00,WeatherCatV1.21B27,2013-08-25 23:13:00,
2013-08-25 16:18:00,73.9,56.2,29.87,ESE,106,1.0,1.0,54,0.00,,,0.00,WeatherCatV1.21B27,2013-08-25 23:18:00,
2013-08-25 16:23:00,73.5,56.3,29.87,West,268,1.0,2.0,55,0.00,,,0.00,WeatherCatV1.21B27,2013-08-25 23:23:00,
2013-08-25 16:28:00,73.4,55.7,29.87,SE,133,0.0,2.0,54,0.00,,,0.00,WeatherCatV1.21B27,2013-08-25 23:28:00,
2013-08-25 16:33:00,73.1,56.5,29.87,SSE,164,1.0,2.0,56,0.00,,,0.00,WeatherCatV1.21B27,2013-08-25 23:33:00,
2013-08-25 16:38:00,72.8,56.2,29.87,ENE,59,1.0,1.0,56,0.00,,,0.00,WeatherCatV1.21B27,2013-08-25 23:38:00,
2013-08-25 16:43:00,72.6,57.0,29.87,NW,316,0.0,2.0,58,0.00,,,0.00,WeatherCatV1.21B27,2013-08-25 23:43:00,
2013-08-25 16:48:00,72.2,56.6,29.87,SE,135,1.0,1.0,58,0.00,,,0.00,WeatherCatV1.21B27,2013-08-25 23:48:00,
2013-08-25 16:53:00,71.9,56.3,29.87,SSE,164,1.0,1.0,58,0.00,,,0.00,WeatherCatV1.21B27,2013-08-25 23:53:00,
2013-08-25 16:58:00,71.7,56.1,29.87,ESE,120,1.0,1.0,58,0.00,,,0.00,WeatherCatV1.21B27,2013-08-25 23:58:00,
2013-08-25 17:03:00,71.4,55.8,29.87,SE,140,1.0,1.0,58,0.00,,,0.00,WeatherCatV1.21B27,2013-08-26 00:03:00,
2013-08-25 17:08:00,71.1,55.6,29.87,East,100,1.0,1.0,58,0.00,,,0.00,WeatherCatV1.21B27,2013-08-26 00:08:00,
2013-08-25 17:13:00,70.7,55.2,29.87,SSE,152,1.0,3.0,58,0.00,,,0.00,WeatherCatV1.21B27,2013-08-26 00:13:00,
2013-08-25 17:18:00,70.4,56.3,29.86,East,94,1.0,1.0,61,0.00,,,0.00,WeatherCatV1.21B27,2013-08-26 00:18:00,
2013-08-25 17:23:00,70.2,56.6,29.86,SSE,156,0.0,1.0,62,0.00,,,0.00,WeatherCatV1.21B27,2013-08-26 00:23:00,
2013-08-25 17:28:00,69.8,57.1,29.86,ESE,123,0.0,0.0,64,0.00,,,0.00,WeatherCatV1.21B27,2013-08-26 00:28:00,
2013-08-25 17:33:00,69.5,57.2,29.86,SSE,159,0.0,2.0,65,0.00,,,0.00,WeatherCatV1.21B27,2013-08-26 00:33:00,
2013-08-25 17:38:00,69.2,57.3,29.86,ESE,108,0.0,1.0,66,0.00,,,0.00,WeatherCatV1.21B27,2013-08-26 00:38:00,
2013-08-25 17:43:00,68.9,57.5,29.86,East,90,0.0,0.0,67,0.00,,,0.00,WeatherCatV1.21B27,2013-08-26 00:43:00,
2013-08-25 17:48:00,68.7,57.7,29.86,SE,125,0.0,2.0,68,0.00,,,0.00,WeatherCatV1.21B27,2013-08-26 00:48:00,
2013-08-25 17:53:00,68.3,57.7,29.86,East,83,0.0,0.0,69,0.00,,,0.00,WeatherCatV1.21B27,2013-08-26 00:53:00,
2013-08-25 17:58:00,68.1,57.9,29.86,ENE,64,0.0,1.0,70,0.00,,,0.00,WeatherCatV1.21B27,2013-08-26 00:58:00,
2013-08-25 18:03:00,67.8,57.7,29.86,SE,140,0.0,1.0,70,0.00,,,0.00,WeatherCatV1.21B27,2013-08-26 01:03:00,
2013-08-25 18:08:00,67.4,57.3,29.86,SSE,149,0.0,0.0,70,0.00,,,0.00,WeatherCatV1.21B27,2013-08-26 01:08:00,
2013-08-25 18:13:00,67.1,57.4,29.86,SSE,150,0.0,0.0,71,0.00,,,0.00,WeatherCatV1.21B27,2013-08-26 01:13:00,
2013-08-25 18:18:00,66.8,57.1,29.86,SE,140,0.0,1.0,71,0.00,,,0.00,WeatherCatV1.21B27,2013-08-26 01:18:00,
2013-08-25 18:23:00,66.6,57.3,29.86,SSE,148,0.0,1.0,72,0.00,,,0.00,WeatherCatV1.21B27,2013-08-26 01:23:00,
2013-08-25 18:28:00,66.3,57.0,29.86,SSE,150,0.0,2.0,72,0.00,,,0.00,WeatherCatV1.21B27,2013-08-26 01:28:00,
2013-08-25 18:33:00,66.0,57.1,29.86,SSE,150,0.0,0.0,73,0.00,,,0.00,WeatherCatV1.21B27,2013-08-26 01:33:00,
2013-08-25 18:38:00,65.9,57.0,29.86,SSE,150,0.0,0.0,73,0.00,,,0.00,WeatherCatV1.21B27,2013-08-26 01:38:00,
2013-08-25 18:43:00,65.8,56.9,29.86,SSE,150,0.0,0.0,73,0.00,,,0.00,WeatherCatV1.21B27,2013-08-26 01:43:00,
2013-08-25 18:48:00,65.6,56.7,29.85,SSE,150,0.0,0.0,73,0.00,,,0.00,WeatherCatV1.21B27,2013-08-26 01:48:00,
2013-08-25 18:53:00,65.4,56.5,29.85,SSE,150,0.0,0.0,73,0.00,,,0.00,WeatherCatV1.21B27,2013-08-26 01:53:00,
2013-08-25 18:58:00,65.3,56.4,29.85,SSE,150,0.0,0.0,73,0.00,,,0.00,WeatherCatV1.21B27,2013-08-26 01:58:00,
2013-08-25 19:03:00,65.1,56.6,29.85,SSE,150,0.0,0.0,74,0.00,,,0.00,WeatherCatV1.21B27,2013-08-26 02:03:00,
2013-08-25 19:08:00,64.9,56.4,29.85,SSE,150,0.0,0.0,74,0.00,,,0.00,WeatherCatV1.21B27,2013-08-26 02:08:00,
2013-08-25 19:13:00,64.8,56.3,29.85,SSE,150,0.0,0.0,74,0.00,,,0.00,WeatherCatV1.21B27,2013-08-26 02:13:00,
2013-08-25 19:18:00,64.6,56.5,29.85,SSE,150,0.0,0.0,75,0.00,,,0.00,WeatherCatV1.21B27,2013-08-26 02:18:00,
2013-08-25 19:23:00,64.3,56.2,29.85,SSE,150,0.0,0.0,75,0.00,,,0.00,WeatherCatV1.21B27,2013-08-26 02:23:00,
2013-08-25 19:28:00,64.0,55.9,29.85,SSE,150,0.0,0.0,75,0.00,,,0.00,WeatherCatV1.21B27,2013-08-26 02:28:00,
2013-08-25 19:33:00,63.7,55.6,29.85,SSE,150,0.0,0.0,75,0.00,,,0.00,WeatherCatV1.21B27,2013-08-26 02:33:00,
2013-08-25 19:38:00,63.5,55.1,29.85,SSE,150,0.0,0.0,74,0.00,,,0.00,WeatherCatV1.21B27,2013-08-26 02:38:00,
2013-08-25 19:43:00,63.3,54.9,29.85,SSE,150,0.0,0.0,74,0.00,,,0.00,WeatherCatV1.21B27,2013-08-26 02:43:00,
2013-08-25 19:48:00,63.1,55.0,29.85,SSE,150,0.0,0.0,75,0.00,,,0.00,WeatherCatV1.21B27,2013-08-26 02:48:00,
2013-08-25 19:53:00,63.0,55.0,29.85,SSE,150,0.0,0.0,75,0.00,,,0.00,WeatherCatV1.21B27,2013-08-26 02:53:00,
2013-08-25 19:58:00,62.9,54.8,29.85,SSE,150,0.0,0.0,75,0.00,,,0.00,WeatherCatV1.21B27,2013-08-26 02:58:00,
2013-08-25 20:03:00,62.8,54.8,29.85,SSE,150,0.0,0.0,75,0.00,,,0.00,WeatherCatV1.21B27,2013-08-26 03:03:00,
2013-08-25 20:08:00,62.6,54.9,29.85,SSE,150,0.0,0.0,76,0.00,,,0.00,WeatherCatV1.21B27,2013-08-26 03:08:00,
2013-08-25 20:13:00,62.5,54.5,29.85,SSE,150,0.0,0.0,75,0.00,,,0.00,WeatherCatV1.21B27,2013-08-26 03:13:00,
2013-08-25 20:18:00,62.3,54.6,29.85,SSE,150,0.0,0.0,76,0.00,,,0.00,WeatherCatV1.21B27,2013-08-26 03:18:00,
2013-08-25 20:23:00,62.1,54.8,29.85,SSE,150,0.0,0.0,77,0.00,,,0.00,WeatherCatV1.21B27,2013-08-26 03:23:00,
2013-08-25 20:28:00,61.8,54.5,29.85,SSE,150,0.0,0.0,77,0.00,,,0.00,WeatherCatV1.21B27,2013-08-26 03:28:00,
2013-08-25 20:33:00,61.7,54.8,29.85,SSE,150,0.0,0.0,78,0.00,,,0.00,WeatherCatV1.21B27,2013-08-26 03:33:00,
2013-08-25 20:38:00,61.4,54.5,29.85,SSE,150,0.0,0.0,78,0.00,,,0.00,WeatherCatV1.21B27,2013-08-26 03:38:00,
2013-08-25 20:43:00,61.3,54.7,29.85,SSE,150,0.0,0.0,79,0.00,,,0.00,WeatherCatV1.21B27,2013-08-26 03:43:00,
2013-08-25 20:48:00,61.1,54.5,29.86,SSE,150,0.0,0.0,79,0.00,,,0.00,WeatherCatV1.21B27,2013-08-26 03:48:00,
2013-08-25 20:53:00,60.9,54.3,29.86,SSE,150,0.0,0.0,79,0.00,,,0.00,WeatherCatV1.21B27,2013-08-26 03:53:00,
2013-08-25 20:58:00,60.6,54.0,29.86,SSE,150,0.0,0.0,79,0.00,,,0.00,WeatherCatV1.21B27,2013-08-26 03:58:00,
2013-08-25 21:01:00,60.5,54.0,29.87,SSE,150,0.0,0.0,79,0.00,,,0.00,WeatherCatV1.21B27,2013-08-26 04:01:00,
2013-08-25 21:06:00,60.4,54.5,29.87,SSE,150,0.0,0.0,81,0.00,,,0.00,WeatherCatV1.21B27,2013-08-26 04:06:00,
2013-08-25 21:11:00,60.3,54.8,29.87,SSE,150,0.0,0.0,82,0.00,,,0.00,WeatherCatV1.21B27,2013-08-26 04:11:00,
2013-08-25 21:16:00,60.2,54.7,29.87,SSE,150,0.0,0.0,82,0.00,,,0.00,WeatherCatV1.21B27,2013-08-26 04:16:00,
2013-08-25 21:21:00,60.0,54.5,29.87,SSE,150,0.0,0.0,82,0.00,,,0.00,WeatherCatV1.21B27,2013-08-26 04:21:00,
2013-08-25 21:26:00,59.8,54.3,29.87,SSE,150,0.0,0.0,82,0.00,,,0.00,WeatherCatV1.21B27,2013-08-26 04:26:00,
2013-08-25 21:31:00,59.6,54.1,29.87,SSE,150,0.0,0.0,82,0.00,,,0.00,WeatherCatV1.21B27,2013-08-26 04:31:00,
2013-08-25 21:36:00,59.5,54.0,29.87,SSE,150,0.0,0.0,82,0.00,,,0.00,WeatherCatV1.21B27,2013-08-26 04:36:00,
2013-08-25 21:41:00,59.3,53.5,29.87,SSE,150,0.0,0.0,81,0.00,,,0.00,WeatherCatV1.21B27,2013-08-26 04:41:00,
2013-08-25 21:46:00,59.2,53.4,29.87,SSE,150,0.0,0.0,81,0.00,,,0.00,WeatherCatV1.21B27,2013-08-26 04:46:00,
2013-08-25 21:51:00,59.1,52.9,29.87,SSE,150,0.0,0.0,80,0.00,,,0.00,WeatherCatV1.21B27,2013-08-26 04:51:00,
2013-08-25 21:56:00,59.0,52.8,29.87,SSE,150,0.0,0.0,80,0.00,,,0.00,WeatherCatV1.21B27,2013-08-26 04:56:00,
2013-08-25 22:01:00,58.8,52.6,29.88,SSE,150,0.0,0.0,80,0.00,,,0.00,WeatherCatV1.21B27,2013-08-26 05:01:00,
2013-08-25 22:06:00,58.6,52.5,29.88,SSE,150,0.0,0.0,80,0.00,,,0.00,WeatherCatV1.21B27,2013-08-26 05:06:00,
2013-08-25 22:11:00,58.2,52.4,29.88,SSE,150,0.0,0.0,81,0.00,,,0.00,WeatherCatV1.21B27,2013-08-26 05:11:00,
2013-08-25 22:16:00,57.9,52.1,29.88,SSE,150,0.0,0.0,81,0.00,,,0.00,WeatherCatV1.21B27,2013-08-26 05:16:00,
2013-08-25 22:21:00,57.8,52.3,29.88,SSE,150,0.0,0.0,82,0.00,,,0.00,WeatherCatV1.21B27,2013-08-26 05:21:00,
2013-08-25 22:26:00,57.7,53.2,29.88,SSE,150,0.0,0.0,85,0.00,,,0.00,WeatherCatV1.21B27,2013-08-26 05:26:00,
2013-08-25 22:31:00,57.6,53.4,29.87,SSE,150,0.0,0.0,86,0.00,,,0.00,WeatherCatV1.21B27,2013-08-26 05:31:00,
2013-08-25 22:36:00,57.5,53.3,29.87,SSE,150,0.0,0.0,86,0.00,,,0.00,WeatherCatV1.21B27,2013-08-26 05:36:00,
2013-08-25 22:41:00,57.1,53.0,29.87,SSE,150,0.0,0.0,86,0.00,,,0.00,WeatherCatV1.21B27,2013-08-26 05:41:00,
2013-08-25 22:46:00,56.8,53.0,29.87,SSE,150,0.0,0.0,87,0.00,,,0.00,WeatherCatV1.21B27,2013-08-26 05:46:00,
2013-08-25 22:51:00,56.6,52.8,29.87,SSE,150,0.0,0.0,87,0.00,,,0.00,WeatherCatV1.21B27,2013-08-26 05:51:00,
2013-08-25 22:56:00,56.5,53.3,29.87,SSE,150,0.0,0.0,89,0.00,,,0.00,WeatherCatV1.21B27,2013-08-26 05:56:00,
2013-08-25 23:01:00,56.6,53.4,29.87,SSE,150,0.0,0.0,89,0.00,,,0.00,WeatherCatV1.21B27,2013-08-26 06:01:00,
2013-08-25 23:06:00,56.6,53.4,29.87,SSE,150,0.0,0.0,89,0.00,,,0.00,WeatherCatV1.21B27,2013-08-26 06:06:00,
2013-08-25 23:11:00,56.6,53.4,29.87,SSE,150,0.0,0.0,89,0.00,,,0.00,WeatherCatV1.21B27,2013-08-26 06:11:00,
2013-08-25 23:16:00,56.5,53.0,29.87,SSE,150,0.0,0.0,88,0.00,,,0.00,WeatherCatV1.21B27,2013-08-26 06:16:00,
2013-08-25 23:21:00,56.5,52.7,29.87,SSE,150,0.0,0.0,87,0.00,,,0.00,WeatherCatV1.21B27,2013-08-26 06:21:00,
2013-08-25 23:26:00,56.4,52.6,29.87,SSE,150,0.0,0.0,87,0.00,,,0.00,WeatherCatV1.21B27,2013-08-26 06:26:00,
2013-08-25 23:31:00,56.2,52.4,29.87,SSE,150,0.0,0.0,87,0.00,,,0.00,WeatherCatV1.21B27,2013-08-26 06:31:00,
2013-08-25 23:36:00,56.2,52.7,29.87,SSE,150,0.0,0.0,88,0.00,,,0.00,WeatherCatV1.21B27,2013-08-26 06:36:00,
2013-08-25 23:41:00,56.2,52.7,29.87,SSE,150,0.0,0.0,88,0.00,,,0.00,WeatherCatV1.21B27,2013-08-26 06:41:00,
2013-08-25 23:46:00,56.2,53.0,29.87,SSE,150,0.0,0.0,89,0.00,,,0.00,WeatherCatV1.21B27,2013-08-26 06:46:00,
2013-08-25 23:51:00,56.2,53.0,29.87,SSE,150,0.0,0.0,89,0.00,,,0.00,WeatherCatV1.21B27,2013-08-26 06:51:00,
2013-08-25 23:56:00,56.2,53.0,29.87,SSE,150,0.0,0.0,89,0.00,,,0.00,WeatherCatV1.21B27,2013-08-26 06:56:00,